CAPE
0 0 0 0 0 0 0 0 0 0 0 0 0 0 0 0 0 0 0 0 0 0 0 0 0 0 0 0 0 0 0 0 0 0 0 0 0 0 0 0 0 0 38 759 1331
0 0 0 0 0 0 0 0 0 0 0 0 0 0 0 0 0 0 0 0 0 0 0 0 0 0 0 0 0 0 0 0 0 0 0 0 0 0 0 0 0 0 11 523 1245
0 0 0 0 0 0 0 0 0 0 0 0 0 0 0 0 0 0 0 0 0 0 0 0 0 0 0 0 0 0 0 0 0 0 0 0 0 0 0 0 0 0 0 34 680
0 0 0 0 0 0 0 0 0 0 0 0 0 0 0 0 0 0 0 0 0 0 0 0 0 0 0 0 0 0 0 0 0 0 0 0 0 0 0 0 0 0 0 0 110
0 0 0 0 0 0 0 0 0 0 0 0 0 0 0 0 0 0 0 0 0 0 0 0 0 0 0 0 0 0 0 0 0 0 0 0 0 0 0 0 0 0 0 0 0
0 0 0 1 1 0 0 0 0 0 0 0 0 0 0 0 0 0 0 0 0 0 0 0 0 0 0 0 0 0 0 0 0 0 0 0 0 0 0 0 0 0 0 0 72
0 0 0 0 0 0 0 0 0 0 0 0 0 0 0 0 0 0 0 0 0 0 0 0 0 0 0 0 0 0 0 0 0 0 0 0 0 0 0 0 0 0 0 0 5
0 0 0 0 0 0 0 0 0 0 0 0 0 0 0 0 0 0 0 0 0 0 0 0 0 0 0 0 0 0 0 0 0 0 0 0 0 0 0 0 0 0 0 0 0
0 0 0 0 0 0 0 0 0 0 0 0 0 0 0 0 0 0 0 0 0 0 0 0 0 0 0 0 0 0 0 0 0 0 0 0 0 0 0 0 0 0 0 0 0
0 0 0 0 0 0 0 0 0 0 0 0 0 0 0 0 0 0 0 0 0 0 0 0 0 0 0 0 0 0 0 0 0 0 0 0 0 0 0 0 0 0 0 0 0
0 0 0 0 0 0 0 0 0 0 0 0 0 0 0 0 0 0 0 0 0 0 0 0 0 0 0 0 0 0 0 0 0 0 0 0 0 0 0 0 0 0 0 0 0
0 0 0 0 0 0 0 0 0 0 0 0 0 0 0 0 0 0 0 0 0 0 0 0 0 0 0 0 0 0 0 0 0 0 0 0 0 0 0 0 0 0 0 0 0
0 0 0 0 0 0 0 0 0 0 0 0 0 0 0 0 0 0 0 0 0 0 0 0 0 0 0 0 0 0 0 0 0 0 0 0 0 0 0 0 0 0 0 0 0
0 0 0 0 0 0 0 0 0 0 0 0 0 0 0 0 0 0 0 0 0 0 0 0 0 0 0 0 0 0 0 0 0 0 0 0 0 0 0 0 0 0 0 0 0
0 0 0 0 0 0 0 0 0 0 0 0 0 0 0 0 0 0 0 0 0 0 0 0 0 0 0 0 0 0 0 0 0 0 0 0 0 0 0 0 0 0 0 0 0
0 0 0 0 0 0 0 0 0 0 0 0 0 0 0 0 0 0 0 0 0 0 0 0 0 0 0 0 0 0 0 0 0 0 0 0 0 0 0 0 0 0 0 0 0
0 0 0 0 0 0 0 0 0 0 0 0 0 0 0 0 0 0 0 0 0 0 0 0 0 0 0 0 0 0 0 0 0 0 0 0 0 0 0 0 0 1 1 0 0
0 0 0 0 0 0 0 0 0 0 0 0 0 0 0 0 0 0 0 0 0 0 0 8 0 0 0 0 0 0 2 2 1 8 2 0 0 42 0 0 3 1 0 0 0
0 0 0 0 0 0 0 0 0 0 0 0 0 0 0 0 0 0 0 0 0 0 0 0 0 0 0 0 0 0 0 0 0 0 0 8 46 32 4 0 0 3 0 0 0
0 0 0 0 0 0 0 0 0 0 0 0 0 0 0 0 0 0 0 0 0 0 0 0 0 0 0 0 0 0 0 0 0 0 8 5 10 32 38 2 0 0 0 0 0
0 0 0 0 0 0 0 0 0 0 0 0 0 0 0 0 0 0 0 0 0 0 0 0 1 0 0 0 0 0 0 0 0 1 1 2 0 110 17 1 0 0 0 0 0
0 0 0 0 0 0 0 0 0 0 0 0 0 0 0 0 0 0 0 0 0 0 0 0 3 14 25 0 0 0 0 0 4 0 0 0 2 1 0 0 0 0 0 0 0
0 0 0 0 0 0 0 0 0 0 0 0 0 0 0 0 0 0 0 0 0 0 0 0 1 0 2 0 0 0 0 0 0 5 0 3 0 0 0 0 0 0 0 0 0
0 0 0 0 0 0 0 0 0 0 0 0 0 0 0 0 0 0 0 0 0 0 0 0 0 0 4 0 0 0 0 0 0 0 0 2 0 0 0 0 0 0 0 0 0
0 0 0 0 0 0 0 0 0 0 0 0 0 0 0 0 0 0 1 0 0 0 0 0 0 2 0 0 0 0 0 0 0 0 0 0 0 0 0 2 0 0 0 0 0
0 0 0 0 0 0 0 0 0 0 0 0 0 0 0 0 0 0 0 0 7 6 1 11 6 10 2 7 0 0 0 0 0 0 0 0 0 0 0 0 0 0 0 0 0
0 0 0 0 0 0 0 0 0 0 0 0 0 0 0 0 0 0 0 0 0 4 23 31 23 21 9 3 2 0 0 0 0 0 0 0 2 0 0 0 0 0 0 0 0
CIN
0 0 0 0 0 0 0 0 0 0 0 0 0 0 0 0 0 0 0 0 0 0 0 0 0 0 0 0 0 0 0 0 0 0 0 0 0 0 0 0 0 0 -81 -82 -181
0 0 0 0 0 0 0 0 0 0 0 0 0 0 0 0 0 0 0 0 0 0 0 0 0 0 0 0 0 0 0 0 0 0 0 0 0 0 0 0 0 0 -26 -167 -173
0 0 0 0 0 0 0 0 0 0 0 0 0 0 0 0 0 0 0 0 0 0 0 0 0 0 0 0 0 0 0 0 0 0 0 0 0 0 0 0 0 0 0 -122 -154
0 0 0 0 0 0 0 0 0 0 0 0 0 0 0 0 0 0 0 0 0 0 0 0 0 0 0 0 0 0 0 0 0 0 0 0 0 0 0 0 0 0 0 0 -165
0 0 0 0 0 0 0 0 0 0 0 0 0 0 0 0 0 0 0 0 0 0 0 0 0 0 0 0 0 0 0 0 0 0 0 0 0 0 0 0 0 0 0 0 0
0 0 0 0 0 0 0 0 0 0 0 0 0 0 0 0 0 0 0 0 0 0 0 0 0 0 0 0 0 0 0 0 0 0 0 0 0 0 0 0 0 0 0 0 -80
0 0 0 0 0 0 0 0 0 0 0 0 0 0 0 0 0 0 0 0 0 0 0 0 0 0 0 0 0 0 0 0 0 0 0 0 0 0 0 0 0 0 0 0 -6
0 0 0 0 0 0 0 0 0 0 0 0 0 0 0 0 0 0 0 0 0 0 0 0 0 0 0 0 0 0 0 0 0 0 0 0 0 0 0 0 0 0 0 0 0
0 0 0 0 0 0 0 0 0 0 0 0 0 0 0 0 0 0 0 0 0 0 0 0 0 0 0 0 0 0 0 0 0 0 0 0 0 0 0 0 0 0 0 0 0
0 0 0 0 0 0 0 0 0 0 0 0 0 0 0 0 0 0 0 0 0 0 0 0 0 0 0 0 0 0 0 0 0 0 0 0 0 0 0 0 0 0 0 0 0
0 0 0 0 0 0 0 0 0 0 0 0 0 0 0 0 0 0 0 0 0 0 0 0 0 0 0 0 0 0 0 0 0 0 0 0 0 0 0 0 0 0 0 0 0
0 0 0 0 0 0 0 0 0 0 0 0 0 0 0 0 0 0 0 0 0 0 0 0 0 0 0 0 0 0 0 0 0 0 0 0 0 0 0 0 0 0 0 0 0
0 0 0 0 0 0 0 0 0 0 0 0 0 0 0 0 0 0 0 0 0 0 0 0 0 0 0 0 0 0 0 0 0 0 0 0 0 0 0 0 0 0 0 0 0
0 0 0 0 0 0 0 0 0 0 0 0 0 0 0 0 0 0 0 0 0 0 0 0 0 0 0 0 0 0 0 0 0 0 0 0 0 0 0 0 0 0 0 0 0
0 0 0 0 0 0 0 0 0 0 0 0 0 0 0 0 0 0 0 0 0 0 0 0 0 0 0 0 0 0 0 0 0 0 0 0 0 0 0 0 0 0 0 0 0
0 0 0 0 0 0 0 0 0 0 0 0 0 0 0 0 0 0 0 0 0 0 0 0 0 0 0 0 0 0 0 0 0 0 0 0 0 0 0 0 0 0 0 0 0
0 0 0 0 0 0 0 0 0 0 0 0 0 0 0 0 0 0 0 0 0 0 0 0 0 0 0 0 0 0 0 0 0 0 0 0 0 0 0 0 0 -1 -1 0 0
0 0 0 0 0 0 0 0 0 0 0 0 0 0 0 0 0 0 0 0 0 0 0 -13 0 0 0 0 0 0 -2 -8 -9 -9 -10 0 0 -10 0 0 0 0 0 0 0
0 0 0 0 0 0 0 0 0 0 0 0 0 0 0 0 0 0 0 0 0 0 0 0 -3 0 0 0 0 0 0 0 0 -1 0 -9 -37 -101 -87 0 0 -1 0 0 0
0 0 0 0 0 0 0 0 0 0 0 0 0 0 0 0 0 0 0 0 0 0 0 0 0 0 0 0 0 0 0 0 0 0 -5 -7 -8 -6 -22 -14 0 0 0 0 0
0 0 0 0 0 0 0 0 0 0 0 0 0 0 0 0 0 0 0 0 0 0 0 0 -19 0 0 0 0 0 0 0 -1 -2 -6 -5 -5 -3 -9 -3 0 0 0 0 0
0 0 0 0 0 0 0 0 0 0 0 0 0 0 0 0 0 0 0 0 0 0 0 0 -49 -13 -7 0 0 0 0 -3 -6 -7 -6 -7 -3 -2 0 0 0 0 0 0 0
0 0 0 0 0 0 0 0 0 0 0 0 0 0 0 0 0 0 0 0 0 0 0 0 -1 0 -1 0 0 0 0 0 0 -4 0 -8 -1 0 0 0 0 0 0 0 0
0 0 0 0 0 0 0 0 0 0 0 0 0 0 0 0 0 0 0 0 0 0 0 0 0 0 -6 0 0 0 0 0 0 -4 -1 -8 -1 -1 0 0 0 0 0 0 0
0 0 0 0 0 0 0 0 0 0 0 0 0 0 0 0 0 -1 -3 0 0 0 0 0 0 -3 0 0 0 0 0 0 0 0 0 0 0 0 0 -3 0 0 0 0 0
0 0 0 0 0 0 0 0 0 0 0 0 0 0 0 0 -1 0 0 -4 -3 -3 -2 -4 -3 -2 -4 -3 0 0 0 0 0 0 0 0 0 0 0 0 0 0 0 0 0
0 0 0 0 0 0 0 0 0 0 0 0 0 0 0 -1 0 0 0 -1 -2 -2 -2 -2 -3 -4 -2 -13 -2 0 0 0 0 0 0 0 -4 0 0 -1 0 0 0 0 0
Wind_Speed
30 29 29 29 28 28 28 27 27 26 25 25 25 24 24 24 25 13 25 15 8 6 6 8 9 6 5 8 3 10 18 26 23 20 17 13 18 22 24 29 23 21 21 19 12
31 31 31 30 30 30 30 29 28 27 26 26 25 25 25 25 27 29 15 11 8 6 8 10 11 11 12 14 8 15 12 11 20 21 18 15 17 23 27 24 26 20 17 17 11
34 33 33 32 32 32 31 30 29 29 27 27 26 25 25 25 25 17 16 4 3 7 5 5 6 6 3 4 6 2 11 15 9 7 15 20 21 20 25 31 22 23 23 20 16
36 36 36 35 34 34 33 32 31 30 28 27 25 25 24 21 21 15 12 7 3 5 3 3 2 3 7 8 4 12 8 12 14 7 7 9 21 22 23 27 27 28 28 23 20
38 38 38 37 37 36 35 34 32 31 29 25 23 22 20 19 21 16 9 6 3 2 2 3 3 5 9 9 10 6 14 16 14 14 11 7 2 3 21 24 26 27 25 23 22
40 40 40 39 38 37 36 35 34 31 27 22 19 18 19 23 17 15 7 2 4 3 6 6 10 9 19 13 9 16 11 16 16 15 13 8 2 3 7 18 23 24 23 21 20
42 42 42 40 39 38 37 36 34 29 21 18 15 17 21 23 17 13 8 5 8 8 10 10 14 9 14 15 13 15 16 13 16 15 14 12 5 7 8 7 14 19 21 21 20
43 43 42 41 39 37 36 32 29 22 16 14 12 18 23 18 17 14 8 9 9 11 16 14 13 14 14 15 15 15 19 21 15 14 13 9 14 3 4 5 2 7 18 21 21
44 44 42 41 39 36 31 26 22 19 15 11 15 18 23 16 18 13 10 10 9 11 14 12 9 15 13 15 18 16 23 18 16 14 15 9 16 9 8 10 9 5 11 19 20
41 42 41 40 36 31 25 19 19 17 16 17 17 19 17 18 15 12 8 10 10 10 12 12 14 17 17 17 22 22 20 20 23 17 17 15 20 17 13 12 12 11 12 14 17
41 41 40 38 32 28 22 19 22 18 20 23 25 24 25 23 14 15 9 11 13 13 17 15 20 22 21 21 26 24 24 24 21 20 23 25 26 22 18 15 13 13 14 17 20
40 38 36 32 32 24 23 25 24 21 23 21 19 21 21 20 20 15 11 13 15 20 17 19 26 23 21 21 23 24 25 26 24 22 20 21 24 21 18 16 16 16 17 20 23
34 32 27 21 18 20 25 26 18 16 20 22 20 22 22 17 18 18 12 13 17 21 19 24 21 21 23 23 24 25 26 24 25 18 22 24 26 20 15 13 14 16 17 20 23
30 25 21 16 18 22 22 23 17 14 19 23 23 22 22 19 17 19 13 14 18 23 22 26 26 24 22 24 23 29 23 25 23 24 29 18 31 17 14 16 17 18 19 20 22
28 25 18 19 17 23 19 17 16 16 23 22 22 19 18 22 22 18 16 12 22 20 20 23 24 24 25 26 24 29 24 24 25 28 29 24 29 20 14 17 20 19 19 19 20
30 27 16 20 17 24 25 19 15 15 18 18 17 23 23 24 20 18 16 13 18 21 19 24 16 19 23 21 23 21 23 25 27 30 36 30 27 27 21 18 19 17 18 18 19
33 26 19 21 25 23 19 16 15 17 18 19 19 23 21 22 23 21 18 15 19 19 22 18 19 20 21 24 21 21 24 30 32 34 40 29 30 27 20 18 17 17 17 18 19
34 22 18 20 25 19 17 15 17 19 19 19 21 19 18 22 20 23 19 18 18 19 25 23 25 22 21 23 26 22 26 32 37 36 33 20 29 24 19 16 16 16 17 19 20
27 22 20 28 25 19 16 18 20 19 19 21 20 17 17 20 20 21 22 21 20 20 20 21 22 17 18 20 21 22 27 25 32 31 33 24 22 20 18 18 16 16 18 19 20
30 21 24 32 22 18 18 20 18 19 20 19 17 18 20 23 21 23 21 19 20 20 21 19 23 17 19 19 19 24 21 27 27 35 38 33 30 27 20 18 17 19 21 22 23
23 22 25 32 18 20 21 20 17 18 20 19 18 18 20 23 21 24 21 20 22 24 23 23 24 20 19 22 24 20 23 26 27 27 33 34 26 21 14 17 20 21 22 25 26
25 23 28 26 22 22 22 19 18 17 19 17 17 18 19 21 20 21 21 22 25 22 24 20 24 30 30 24 26 29 32 32 34 33 33 37 33 20 19 20 21 22 23 24 25
27 22 24 23 24 25 21 19 17 18 19 18 17 18 19 18 18 19 20 21 22 20 21 18 19 24 23 21 22 28 29 32 36 37 39 37 30 18 21 23 22 24 25 26 28
24 24 23 23 23 23 22 20 19 18 17 17 17 17 17 15 16 20 20 19 21 20 20 18 20 22 27 25 23 23 23 24 26 33 38 39 33 26 24 27 26 25 26 28 29
23 23 22 24 24 23 20 19 19 19 17 16 16 17 16 16 17 19 21 22 20 20 19 18 18 18 20 22 22 25 24 22 25 27 30 28 29 26 28 27 26 25 27 29 31
23 23 20 21 20 21 19 19 19 19 18 17 16 17 15 13 16 24 26 21 22 18 17 16 21 21 26 20 21 24 24 25 26 25 27 28 31 28 21 22 23 25 26 29 31
21 19 20 20 20 20 20 19 18 19 17 16 16 16 14 16 18 20 21 23 23 22 20 19 21 20 24 19 26 29 27 23 23 21 22 21 19 15 18 20 23 26 28 30 31
Wind_Direction
335 331 325 322 319 317 315 313 311 309 309 309 305 302 304 307 304 338 235 317 354 75 40 108 125 109 97 132 41 318 265 280 286 293 298 307 293 285 281 268 277 280 288 297 312
332 329 326 321 319 318 318 318 314 308 306 304 301 302 301 306 293 253 316 327 347 103 100 113 126 127 141 155 121 166 177 217 296 292 297 303 300 288 277 277 272 283 299 298 307
330 326 322 320 317 315 314 313 308 305 303 300 301 304 302 306 299 318 322 1 26 121 91 73 80 104 95 83 137 56 187 315 331 330 305 298 295 294 281 268 277 277 285 283 288
331 327 323 318 314 313 310 309 306 304 303 302 304 304 304 313 308 328 345 356 54 111 22 18 47 339 316 318 319 317 322 316 323 342 327 319 300 291 283 275 277 280 278 281 278
331 326 322 319 316 312 309 306 305 304 305 307 309 310 316 311 302 322 342 355 70 324 304 319 317 316 309 313 316 302 312 313 310 312 317 327 231 259 289 279 279 279 282 279 278
331 326 322 319 317 315 312 308 303 306 311 312 315 317 314 303 321 322 327 335 318 301 294 300 314 309 308 307 300 319 302 309 308 308 312 315 257 168 307 288 281 279 280 282 282
330 327 323 320 318 317 314 311 307 310 318 320 319 316 308 302 317 321 318 291 301 295 294 297 306 308 315 308 311 310 308 309 302 303 304 314 288 200 182 326 290 284 284 285 283
329 328 325 322 320 316 316 318 322 331 335 332 329 317 303 315 312 305 302 298 296 299 300 298 300 295 302 312 309 302 300 296 306 302 302 307 308 299 329 333 225 281 289 286 286
330 330 327 326 323 322 324 334 348 357 2 1 333 315 306 323 307 297 291 290 290 295 304 307 295 294 297 294 294 294 291 293 300 305 303 290 302 308 315 313 311 285 295 291 292
325 326 326 326 326 334 346 358 2 5 359 345 337 320 318 315 322 323 291 290 284 283 292 292 288 286 284 279 283 286 287 289 288 299 291 293 291 296 299 305 303 307 305 300 299
328 331 334 338 347 3 15 12 354 356 344 327 317 313 308 307 315 308 308 279 283 274 275 276 278 277 280 278 283 290 289 287 292 293 290 286 286 288 293 292 291 298 304 302 298
331 330 333 335 354 27 32 11 8 357 338 348 343 341 330 317 302 300 297 275 269 271 271 281 275 280 286 284 283 285 284 285 290 289 287 290 288 288 288 290 294 296 299 299 298
326 323 317 310 52 49 27 19 39 45 354 351 357 344 341 340 321 305 287 272 271 270 268 273 294 284 278 279 279 281 281 284 285 292 289 288 286 283 289 292 298 304 304 302 298
321 316 308 303 54 38 36 26 39 58 5 355 358 360 355 343 324 328 313 281 279 272 269 276 278 287 282 276 278 278 281 282 284 285 285 278 285 271 276 283 293 298 302 306 305
318 313 301 44 47 31 32 35 47 50 360 15 14 19 12 348 332 335 332 289 280 280 270 277 280 276 277 279 281 280 284 279 282 281 280 280 279 288 273 278 290 295 301 307 313
316 310 293 36 39 18 11 25 46 39 25 21 23 8 359 356 353 346 338 325 301 283 280 278 292 288 288 290 287 290 283 282 281 279 273 274 274 278 272 276 292 297 302 306 313
316 305 27 25 11 11 20 31 29 27 23 19 11 1 358 353 345 343 336 325 305 284 274 272 282 291 293 285 286 280 279 277 276 272 272 278 267 274 286 287 294 297 302 308 315
315 325 32 25 10 21 27 28 18 15 12 10 2 1 0 356 348 334 328 321 323 303 292 271 277 286 295 285 285 277 276 274 276 276 279 276 270 278 283 291 296 300 304 308 315
309 23 29 6 13 22 25 14 10 14 13 4 1 0 359 355 346 331 319 312 318 318 295 290 282 302 300 302 285 281 275 287 281 282 278 284 284 288 289 288 293 297 302 306 310
5 18 14 359 17 25 22 14 14 13 8 6 2 1 349 344 342 330 316 316 311 313 310 304 291 297 300 298 299 284 287 281 280 274 274 277 280 287 277 281 289 294 298 301 305
15 13 10 2 32 24 14 12 15 15 7 6 0 351 348 343 341 325 316 317 311 305 304 300 293 295 297 289 286 288 284 281 281 276 277 279 283 301 290 294 293 295 302 302 301
8 5 7 14 16 16 10 13 13 12 10 6 1 356 351 346 340 329 319 312 317 310 302 305 298 285 286 301 291 285 281 281 276 275 277 276 283 289 290 294 297 301 304 309 309
357 6 12 15 5 6 12 13 16 13 11 10 5 2 358 354 346 334 326 326 322 316 310 314 306 296 297 301 294 285 282 277 276 278 273 276 284 294 294 295 300 301 303 306 307
0 358 10 18 15 8 8 11 9 12 11 11 6 2 359 356 347 332 330 327 319 319 319 319 309 303 294 307 308 300 293 286 281 275 277 275 280 287 291 293 296 302 306 306 307
2 0 6 359 4 4 9 9 7 8 13 12 10 6 2 354 343 331 327 322 317 315 315 314 311 315 311 310 308 300 295 291 285 285 283 285 288 289 297 298 300 306 307 307 307
355 359 6 2 9 3 7 9 6 9 10 11 6 5 4 356 346 324 319 323 309 317 315 317 306 313 303 310 308 302 297 291 288 288 287 288 289 294 306 306 306 308 310 309 309
360 7 4 4 4 3 3 6 9 8 12 15 14 4 359 354 348 334 323 310 306 303 305 307 305 318 308 315 306 296 295 291 289 290 292 292 306 314 311 311 311 310 310 309 311